Observations for Trim Market St
| Time | AQI | Temp °C | Hum % | Pres Pa | CO μg/m³ | H₂S μg/m³ | NO μg/m³ | NO₂ μg/m³ | O₃ μg/m³ | SO₂ μg/m³ | PM1 μg/m³ | PM2.5 μg/m³ | PM10 μg/m³ |
|---|---|---|---|---|---|---|---|---|---|---|---|---|---|
| Friday 21 August 2026 | |||||||||||||
| 09:05 | 2 | 27.7 | 39 | 65,709 | 0.32 | 0 | 1.64 | 17.38 | 57.68 | 0 | 0 | 2.38 | 3.48 |
| 09:04 | 2 | 27.5 | 39 | 65,715 | 0.29 | 0 | 1.57 | 13.31 | 63.28 | 0 | 0 | 2.92 | 3.21 |
| 09:03 | 2 | 27.4 | 40 | 65,686 | 0.23 | 0 | 2.02 | 15.68 | 62.06 | 0 | 0 | 2.89 | 3.18 |
| 09:02 | 2 | 27.3 | 39 | 65,663 | 0.26 | 0 | 2.16 | 12.64 | 56.83 | 0 | 0 | 2.91 | 3.2 |
| 09:01 | 2 | 27.2 | 39 | 65,659 | 0.33 | 0 | 2.18 | 12.44 | 66.56 | 0 | 0 | 2.91 | 3.2 |
| 09:00 | 2 | 27.1 | 39 | 65,663 | 0.9 | 0 | 1.91 | 22.41 | 64.03 | 0 | 0 | 2.38 | 2.62 |
| 08:59 | 2 | 26.9 | 40 | 65,661 | 1.89 | 0 | 1.85 | 32.51 | 60.49 | 0 | 16.39 | 19.31 | 28.52 |
| 08:58 | 2 | 26.9 | 40 | 65,629 | 0.29 | 0 | 1.57 | 8.93 | 58.42 | 0 | 0 | 2.35 | 2.59 |
| 08:57 | 2 | 26.7 | 40 | 65,621 | 0.13 | 0 | 1.48 | 9.31 | 60.38 | 0 | 0 | 2.88 | 3.17 |
| 08:52 | 2 | 26.3 | 40 | 65,580 | 0.15 | 0 | 1.52 | 5.7 | 57.07 | 0 | 0.71 | 3.94 | 4.33 |
| 08:51 | 2 | 26.2 | 40 | 65,586 | 0.29 | 0 | 1.87 | 12.37 | 60.46 | 0 | 0 | 2.89 | 3.17 |
| 08:44 | 2 | 25.9 | 42 | 65,570 | 0.33 | 0 | 1.77 | 5.63 | 51.61 | 0 | 0 | 2.77 | 3.05 |
| 08:43 | 2 | 25.9 | 43 | 65,546 | 0.36 | 0 | 1.87 | 5.33 | 49.26 | 0 | 0 | 2.23 | 2.45 |
| 08:37 | 2 | 25.2 | 44 | 65,431 | 0.42 | 0 | 1.68 | 10.03 | 49.94 | 0 | 0 | 2.71 | 2.98 |
| 08:36 | 2 | 25.1 | 44 | 65,418 | 0.47 | 0 | 1.63 | 8.68 | 49.58 | 0 | 0 | 2.71 | 2.84 |
| 08:35 | 2 | 25 | 44 | 65,431 | 0.41 | 0 | 1.71 | 11.88 | 46.82 | 0 | 0 | 3.22 | 3.54 |
| 08:34 | 2 | 24.9 | 45 | 65,423 | 0.42 | 0 | 1.76 | 11.06 | 46.85 | 0 | 1.43 | 4.76 | 5.2 |
| 08:32 | 2 | 24.7 | 45 | 65,376 | 0.44 | 0 | 1.84 | 6.52 | 55.86 | 0 | 0 | 2.66 | 2.93 |
| 08:31 | 2 | 24.5 | 45 | 65,352 | 0.51 | 0 | 1.97 | 12.39 | 46.01 | 0 | 1.43 | 4.22 | 4.43 |
| 08:30 | 2 | 24.4 | 46 | 65,319 | 0.64 | 0 | 1.85 | 7.37 | 38.7 | 0 | 0 | 2.11 | 2.32 |